TimeEST,TemperatureF,Dew PointF,Humidity,Sea Level PressureIn,VisibilityMPH,Wind Direction,Wind SpeedMPH,Gust SpeedMPH,PrecipitationIn,Events,Conditions,WindDirDegrees,DateUTC
12:53 AM,30.9,10.9,43,30.07,10.0,Variable,4.6,-,N/A,,Clear,0,2013-01-21 05:53:00
1:53 AM,28.9,10.9,47,30.09,10.0,Calm,Calm,-,N/A,,Overcast,0,2013-01-21 06:53:00
2:53 AM,28.0,12.0,51,30.09,10.0,Calm,Calm,-,N/A,,Clear,0,2013-01-21 07:53:00
3:53 AM,28.0,14.0,56,30.08,10.0,Calm,Calm,-,N/A,,Overcast,0,2013-01-21 08:53:00
5:53 AM,26.1,12.9,58,30.07,10.0,Calm,Calm,-,N/A,,Mostly Cloudy,0,2013-01-21 10:53:00
6:53 AM,26.1,12.9,58,30.07,10.0,Calm,Calm,-,N/A,,Overcast,0,2013-01-21 11:53:00
7:53 AM,26.1,12.9,58,30.08,10.0,Calm,Calm,-,N/A,,Overcast,0,2013-01-21 12:53:00
8:53 AM,27.0,14.0,58,30.07,10.0,Calm,Calm,-,N/A,,Overcast,0,2013-01-21 13:53:00
9:53 AM,27.0,12.9,56,30.07,10.0,WSW,3.5,-,N/A,,Overcast,250,2013-01-21 14:53:00
10:53 AM,28.9,12.9,51,30.04,10.0,Variable,4.6,-,N/A,,Overcast,0,2013-01-21 15:53:00
11:53 AM,30.9,14.0,50,29.98,10.0,Calm,Calm,-,N/A,,Overcast,0,2013-01-21 16:53:00
12:53 PM,32.0,16.0,52,29.94,10.0,Calm,Calm,-,N/A,,Overcast,0,2013-01-21 17:53:00
1:53 PM,34.0,17.1,50,29.88,10.0,Calm,Calm,-,N/A,,Overcast,0,2013-01-21 18:53:00
2:53 PM,36.0,19.0,50,29.85,10.0,Variable,6.9,-,N/A,,Mostly Cloudy,0,2013-01-21 19:53:00
3:53 PM,37.9,18.0,45,29.84,10.0,SW,6.9,-,N/A,,Overcast,220,2013-01-21 20:53:00
4:53 PM,37.0,18.0,46,29.87,10.0,Variable,4.6,-,N/A,,Overcast,0,2013-01-21 21:53:00
5:53 PM,34.0,18.0,52,29.91,10.0,North,11.5,20.7,N/A,,Overcast,360,2013-01-21 22:53:00
6:53 PM,30.9,15.1,52,29.93,10.0,Variable,6.9,18.4,N/A,,Clear,0,2013-01-21 23:53:00
7:53 PM,28.9,12.9,51,29.94,10.0,West,9.2,23.0,N/A,,Partly Cloudy,280,2013-01-22 00:53:00
8:53 PM,28.0,10.9,49,29.92,10.0,Variable,5.8,-,N/A,,Clear,0,2013-01-22 01:53:00
9:53 PM,27.0,10.0,49,29.94,10.0,NW,10.4,18.4,N/A,,Mostly Cloudy,310,2013-01-22 02:53:00
10:53 PM,26.1,9.0,49,29.94,10.0,NNW,12.7,21.9,N/A,,Overcast,330,2013-01-22 03:53:00
11:45 PM,24.8,8.6,50,29.91,9.0,WSW,10.4,18.4,0.00,,Overcast,240,2013-01-22 04:45:00
11:53 PM,23.0,7.0,50,29.96,10.0,NW,11.5,21.9,0.00,,Overcast,320,2013-01-22 04:53:00